Flag for Senegal Weather past 2 weeks in Dakar, Senegal

Now
77 °F

Thunderstorms. Passing clouds.


Feels Like: 78 °F
Forecast: 79 / 86 °F
Wind: 5 mph from North

Location: Dakar / Yoff

Current Time: Sep 19, 2014 at 4:09:37 AM

Latest Report: Sep 19, 2014 at 3:30 AM


Visibility: 5 mi

Pressure: 29.83 "Hg

Humidity: 89%

Dew point: 73 °F

Location of DakarLocation

Historic Weather in Dakar — Graph

°F

Dakar temperature yesterday

Maximum temperature yesterday: 86 °F (at 10:30 AM)
Minimum temperature yesterday: 79 °F (at 1:30 AM)
Average temperature yesterday: 82 °F

Past Weeks' High & Low Weather Summary

 TemperatureHumidityPressure
High88 °F (Sep 5, 4:00 PM)100% (Sep 9, 11:30 PM)30.04 "Hg (Sep 9, 11:30 PM)
Low72 °F (Sep 19, 1:00 AM)62% (Sep 13, 9:30 AM)29.74 "Hg (Sep 7, 4:30 PM)
Average82 °F82%29.88 "Hg
* Reported Sep 4 3:00 AM — Sep 19 3:00 AM, Dakar, Weather by CustomWeather, © 2014

Note: Actual official high and low records may vary slightly from our data, if they occured in-between our weather recording intervals... More about our weather records

Advertising

Dakar weather history for previous 24 hours

 ConditionsComfort  
Time TempWeatherWind HumidityBarometerVisibility
3:00 AM
Sep 19
75 °FThunderstorms. Passing clouds.3 mph94%29.83 "Hg5 mi
2:30 AM73 °FThunderstorms. Passing clouds.1 mph94%29.83 "Hg4 mi
2:00 AM73 °FThunderstorms. Passing clouds.3 mph94%29.83 "Hg4 mi
1:30 AM73 °FThunderstorms. Partly cloudy.3 mph94%29.86 "Hg4 mi
1:00 AM72 °FThunderstorms. Partly cloudy.12 mph100%29.89 "Hg2 mi
12:30 AM75 °FThunderstorms. Passing clouds.17 mph89%29.92 "Hg4 mi
12:00 AM82 °FThunderstorms. Passing clouds.8 mph89%29.86 "HgN/A
11:30 PM
Sep 18
82 °FThunderstorms. Passing clouds.7 mph89%29.89 "HgN/A
11:00 PM82 °FThunderstorms. Passing clouds.9 mph89%29.89 "HgN/A
10:30 PM82 °FThunderstorms. Passing clouds.8 mph89%29.89 "HgN/A
10:00 PM82 °FPassing clouds.7 mph89%29.86 "HgN/A
9:30 PM82 °FPassing clouds.7 mph84%29.83 "HgN/A
9:00 PM82 °FPassing clouds.7 mph84%29.83 "HgN/A
8:30 PM82 °FPassing clouds.6 mph84%29.83 "HgN/A
8:00 PM82 °FPassing clouds.7 mph84%29.83 "HgN/A
7:30 PM82 °FPassing clouds.5 mph84%29.80 "HgN/A
7:00 PM84 °FScattered clouds.6 mph79%29.80 "HgN/A
6:30 PM84 °FBroken clouds.6 mph79%29.80 "HgN/A
6:00 PM84 °FBroken clouds.8 mph79%29.80 "HgN/A
5:30 PM84 °FBroken clouds.7 mph79%29.80 "HgN/A
5:00 PM86 °FBroken clouds.8 mph75%29.80 "HgN/A
4:30 PM86 °FBroken clouds.9 mph75%29.80 "HgN/A
4:00 PM86 °FBroken clouds.8 mph75%29.80 "HgN/A
3:30 PM84 °FBroken clouds.7 mph79%29.80 "HgN/A
3:00 PM84 °FBroken clouds.7 mph79%29.83 "HgN/A
2:30 PM86 °FBroken clouds.9 mph75%29.83 "HgN/A
2:00 PM86 °FBroken clouds.9 mph70%29.83 "HgN/A
1:30 PM86 °FBroken clouds.9 mph70%29.86 "HgN/A
1:00 PM86 °FBroken clouds.9 mph70%29.86 "HgN/A
12:30 PM86 °FPartly sunny.9 mph70%29.89 "HgN/A
12:00 PM86 °FPartly sunny.9 mph70%29.89 "HgN/A
11:30 AM86 °FPartly sunny.9 mph70%29.89 "HgN/A
11:00 AM86 °FPartly sunny.9 mph70%29.89 "HgN/A
10:30 AM86 °FPartly sunny.9 mph75%29.89 "HgN/A
10:00 AM84 °FBroken clouds.9 mph74%29.89 "HgN/A
9:30 AM82 °FScattered clouds.8 mph79%29.89 "HgN/A
9:00 AM84 °FScattered clouds.8 mph74%29.89 "HgN/A
8:30 AM82 °FScattered clouds.8 mph79%29.89 "HgN/A
8:00 AM81 °FScattered clouds.6 mph84%29.86 "HgN/A
7:30 AM79 °FPartly sunny.6 mph89%29.86 "HgN/A
7:00 AM79 °FScattered clouds.5 mph89%29.86 "HgN/A
6:30 AM79 °FPassing clouds.5 mph89%29.86 "HgN/A
6:00 AM79 °FPassing clouds.5 mph89%29.86 "HgN/A
5:30 AM79 °FPassing clouds.3 mph89%29.83 "HgN/A
5:00 AM79 °FPassing clouds.5 mph84%29.83 "HgN/A
4:30 AM79 °FPassing clouds.2 mph84%29.83 "HgN/A
4:00 AM79 °FPassing clouds.2 mph84%29.83 "HgN/A
Weather by CustomWeather, © 2014

See weather overviewHow to use our weather pages